QPF
0.00 0.00 0.00 0.00 0.00 0.00 0.00 0.01 0.01 0.01 0.01 0.01 0.01 0.02 0.05 0.07 0.13 0.08 0.04 0.03 0.03 0.04 0.05 0.05 0.05 0.06 0.07 0.08 0.07 0.07 0.07 0.08 0.06 0.06 0.07 0.07 0.08 0.09 0.10 0.09 0.08 0.08 0.08 0.09
0.00 0.00 0.00 0.00 0.00 0.00 0.00 0.01 0.01 0.01 0.01 0.00 0.00 0.01 0.03 0.06 0.11 0.08 0.04 0.03 0.03 0.03 0.04 0.04 0.04 0.06 0.11 0.10 0.06 0.07 0.07 0.07 0.06 0.04 0.05 0.04 0.04 0.05 0.06 0.05 0.04 0.04 0.04 0.06
0.00 0.00 0.00 0.00 0.00 0.00 0.00 0.00 0.00 0.00 0.01 0.01 0.01 0.01 0.02 0.04 0.08 0.08 0.05 0.04 0.03 0.03 0.02 0.02 0.03 0.05 0.09 0.09 0.06 0.07 0.07 0.07 0.06 0.05 0.04 0.03 0.03 0.04 0.04 0.03 0.03 0.04 0.04 0.05
0.00 0.00 0.00 0.00 0.00 0.00 0.00 0.00 0.00 0.00 0.00 0.01 0.02 0.04 0.05 0.06 0.08 0.08 0.05 0.04 0.02 0.02 0.02 0.02 0.03 0.05 0.07 0.09 0.08 0.08 0.08 0.06 0.06 0.05 0.04 0.03 0.04 0.03 0.03 0.03 0.04 0.04 0.05 0.06
0.00 0.00 0.00 0.00 0.00 0.00 0.00 0.00 0.00 0.00 0.00 0.02 0.03 0.04 0.06 0.07 0.08 0.08 0.05 0.04 0.03 0.03 0.03 0.03 0.05 0.05 0.06 0.08 0.11 0.12 0.10 0.10 0.10 0.08 0.06 0.07 0.08 0.06 0.05 0.05 0.06 0.06 0.07 0.08
0.00 0.00 0.00 0.00 0.00 0.00 0.00 0.01 0.00 0.00 0.01 0.02 0.02 0.02 0.03 0.04 0.05 0.06 0.05 0.05 0.04 0.03 0.03 0.04 0.05 0.06 0.06 0.06 0.10 0.15 0.16 0.12 0.10 0.10 0.09 0.09 0.10 0.10 0.09 0.07 0.06 0.06 0.06 0.06
0.00 0.00 0.00 0.00 0.00 0.00 0.00 0.00 0.00 0.00 0.00 0.00 0.00 0.01 0.01 0.02 0.02 0.03 0.03 0.03 0.03 0.03 0.02 0.03 0.03 0.04 0.05 0.06 0.08 0.11 0.11 0.13 0.12 0.10 0.10 0.10 0.09 0.09 0.09 0.07 0.06 0.05 0.04 0.05
0.00 0.00 0.01 0.00 0.00 0.01 0.01 0.00 0.00 0.00 0.00 0.00 0.01 0.01 0.02 0.02 0.01 0.01 0.01 0.02 0.02 0.02 0.02 0.01 0.02 0.03 0.05 0.07 0.09 0.10 0.11 0.11 0.13 0.11 0.11 0.12 0.09 0.07 0.07 0.06 0.05 0.05 0.05 0.05
0.00 0.00 0.01 0.01 0.00 0.00 0.00 0.00 0.00 0.00 0.00 0.01 0.01 0.01 0.02 0.02 0.01 0.01 0.01 0.01 0.01 0.01 0.01 0.02 0.03 0.04 0.04 0.05 0.07 0.10 0.11 0.11 0.13 0.12 0.10 0.10 0.07 0.05 0.05 0.06 0.07 0.07 0.06 0.07
0.00 0.00 0.01 0.01 0.00 0.00 0.00 0.00 0.01 0.01 0.00 0.01 0.01 0.01 0.01 0.02 0.02 0.01 0.01 0.01 0.01 0.02 0.01 0.03 0.04 0.04 0.04 0.03 0.04 0.08 0.10 0.11 0.12 0.13 0.08 0.07 0.07 0.06 0.05 0.05 0.07 0.07 0.06 0.05
0.01 0.01 0.01 0.00 0.00 0.00 0.00 0.00 0.01 0.02 0.01 0.01 0.02 0.02 0.02 0.02 0.02 0.02 0.02 0.01 0.02 0.02 0.02 0.03 0.04 0.04 0.04 0.04 0.04 0.06 0.09 0.10 0.11 0.09 0.05 0.04 0.04 0.04 0.04 0.04 0.04 0.04 0.04 0.03
0.01 0.01 0.01 0.00 0.00 0.00 0.00 0.00 0.00 0.02 0.03 0.01 0.02 0.02 0.04 0.02 0.02 0.03 0.02 0.01 0.02 0.02 0.02 0.03 0.04 0.03 0.03 0.04 0.04 0.05 0.08 0.08 0.09 0.07 0.04 0.03 0.03 0.02 0.02 0.03 0.04 0.04 0.04 0.03
0.01 0.00 0.00 0.01 0.00 0.00 0.00 0.00 0.01 0.01 0.01 0.02 0.02 0.03 0.03 0.01 0.02 0.03 0.03 0.03 0.02 0.02 0.02 0.03 0.03 0.03 0.03 0.03 0.04 0.03 0.07 0.07 0.07 0.05 0.03 0.02 0.02 0.02 0.02 0.03 0.03 0.03 0.04 0.04
0.00 0.00 0.00 0.01 0.00 0.00 0.00 0.00 0.01 0.00 0.00 0.00 0.01 0.02 0.02 0.01 0.01 0.02 0.03 0.06 0.06 0.03 0.02 0.02 0.03 0.03 0.03 0.02 0.02 0.04 0.09 0.09 0.06 0.05 0.02 0.01 0.02 0.02 0.01 0.01 0.03 0.03 0.04 0.04
0.00 0.00 0.00 0.00 0.00 0.00 0.00 0.00 0.00 0.00 0.00 0.00 0.01 0.02 0.01 0.01 0.01 0.01 0.01 0.03 0.04 0.03 0.02 0.02 0.02 0.03 0.03 0.03 0.03 0.05 0.09 0.09 0.05 0.03 0.01 0.01 0.02 0.02 0.02 0.01 0.02 0.03 0.04 0.04
0.00 0.00 0.01 0.00 0.00 0.00 0.00 0.01 0.01 0.00 0.00 0.00 0.01 0.01 0.01 0.01 0.01 0.00 0.01 0.02 0.03 0.03 0.02 0.02 0.02 0.04 0.05 0.04 0.05 0.05 0.08 0.10 0.05 0.02 0.01 0.01 0.01 0.01 0.01 0.01 0.02 0.02 0.03 0.03
0.00 0.00 0.00 0.00 0.00 0.00 0.01 0.01 0.01 0.00 0.00 0.01 0.01 0.01 0.01 0.01 0.01 0.01 0.01 0.02 0.03 0.03 0.02 0.02 0.02 0.04 0.06 0.05 0.04 0.04 0.07 0.08 0.03 0.01 0.01 0.01 0.01 0.01 0.02 0.02 0.02 0.01 0.02 0.02
0.00 0.00 0.00 0.00 0.00 0.00 0.01 0.01 0.01 0.00 0.00 0.01 0.01 0.00 0.00 0.01 0.01 0.00 0.01 0.02 0.04 0.03 0.02 0.02 0.02 0.03 0.03 0.04 0.04 0.05 0.07 0.05 0.02 0.01 0.01 0.01 0.01 0.02 0.02 0.01 0.01 0.01 0.01 0.02
0.00 0.00 0.00 0.00 0.00 0.01 0.00 0.01 0.01 0.01 0.01 0.01 0.01 0.01 0.01 0.01 0.01 0.01 0.01 0.01 0.02 0.03 0.03 0.02 0.02 0.03 0.03 0.03 0.04 0.05 0.06 0.04 0.02 0.01 0.01 0.01 0.01 0.01 0.01 0.01 0.01 0.01 0.01 0.02
0.00 0.00 0.00 0.00 0.00 0.00 0.01 0.01 0.01 0.01 0.02 0.02 0.02 0.01 0.01 0.01 0.02 0.01 0.01 0.01 0.02 0.03 0.03 0.03 0.03 0.04 0.04 0.04 0.04 0.03 0.04 0.03 0.02 0.02 0.02 0.01 0.01 0.01 0.01 0.01 0.01 0.01 0.02 0.02
0.00 0.00 0.00 0.00 0.00 0.01 0.00 0.00 0.00 0.01 0.01 0.01 0.01 0.01 0.01 0.02 0.02 0.02 0.01 0.01 0.02 0.03 0.03 0.03 0.04 0.05 0.05 0.04 0.03 0.02 0.02 0.02 0.02 0.02 0.02 0.01 0.01 0.01 0.01 0.00 0.01 0.01 0.02 0.02
0.01 0.00 0.00 0.00 0.01 0.01 0.00 0.00 0.01 0.01 0.01 0.01 0.01 0.01 0.01 0.02 0.02 0.01 0.01 0.01 0.02 0.02 0.03 0.04 0.04 0.05 0.05 0.03 0.02 0.02 0.02 0.01 0.01 0.02 0.02 0.02 0.01 0.01 0.01 0.01 0.01 0.01 0.02 0.02
0.01 0.01 0.01 0.00 0.00 0.00 0.01 0.01 0.01 0.00 0.01 0.01 0.01 0.01 0.01 0.01 0.01 0.01 0.01 0.01 0.02 0.03 0.03 0.04 0.03 0.04 0.05 0.04 0.02 0.02 0.02 0.01 0.01 0.01 0.01 0.01 0.01 0.00 0.01 0.01 0.02 0.02 0.02 0.02
0.01 0.01 0.01 0.00 0.00 0.00 0.00 0.00 0.00 0.00 0.00 0.00 0.01 0.01 0.01 0.01 0.01 0.01 0.01 0.01 0.02 0.02 0.02 0.03 0.03 0.05 0.05 0.03 0.02 0.02 0.01 0.01 0.01 0.01 0.01 0.01 0.01 0.01 0.01 0.02 0.02 0.01 0.01 0.02
0.00 0.01 0.00 0.00 0.00 0.00 0.00 0.00 0.00 0.00 0.00 0.00 0.00 0.01 0.01 0.01 0.02 0.02 0.02 0.02 0.02 0.02 0.02 0.02 0.02 0.03 0.03 0.02 0.01 0.02 0.02 0.02 0.01 0.00 0.01 0.01 0.01 0.01 0.01 0.01 0.01 0.01 0.01 0.02
0.00 0.00 0.00 0.00 0.00 0.00 0.00 0.00 0.00 0.00 0.00 0.00 0.00 0.00 0.01 0.02 0.02 0.02 0.02 0.01 0.02 0.02 0.01 0.01 0.01 0.02 0.02 0.01 0.02 0.02 0.02 0.02 0.01 0.00 0.01 0.01 0.01 0.01 0.00 0.00 0.01 0.01 0.01 0.02
MSLP
1012.16 1012.75 1013.16 1013.44 1013.68 1013.95 1014.34 1014.87 1015.54 1016.29 1017.04 1017.67 1018.12 1018.32 1018.25 1017.95 1017.49 1016.95 1016.41 1015.93 1015.54 1015.25 1015.01 1014.78 1014.51 1014.15 1013.69 1013.14 1012.52 1011.87 1011.23 1010.63 1010.09 1009.61 1009.17 1008.76 1008.36 1007.96 1007.56 1007.18 1006.84 1006.56 1006.38 1006.30
1012.46 1012.96 1013.30 1013.54 1013.77 1014.09 1014.57 1015.24 1016.07 1016.97 1017.83 1018.56 1019.04 1019.22 1019.10 1018.72 1018.16 1017.53 1016.92 1016.40 1015.99 1015.68 1015.45 1015.23 1014.95 1014.59 1014.11 1013.55 1012.92 1012.28 1011.66 1011.11 1010.62 1010.19 1009.79 1009.40 1008.99 1008.54 1008.07 1007.59 1007.15 1006.78 1006.51 1006.36
1012.60 1013.00 1013.25 1013.44 1013.67 1014.03 1014.60 1015.38 1016.33 1017.33 1018.28 1019.04 1019.52 1019.67 1019.48 1019.03 1018.40 1017.72 1017.09 1016.57 1016.18 1015.92 1015.74 1015.55 1015.31 1014.96 1014.50 1013.93 1013.30 1012.67 1012.07 1011.55 1011.11 1010.74 1010.39 1010.03 1009.63 1009.18 1008.67 1008.13 1007.62 1007.18 1006.84 1006.65
1012.67 1012.95 1013.12 1013.26 1013.48 1013.89 1014.53 1015.39 1016.42 1017.50 1018.48 1019.24 1019.69 1019.78 1019.53 1019.01 1018.34 1017.64 1017.03 1016.55 1016.24 1016.06 1015.95 1015.84 1015.65 1015.34 1014.88 1014.31 1013.68 1013.03 1012.44 1011.93 1011.51 1011.17 1010.86 1010.54 1010.17 1009.73 1009.22 1008.68 1008.14 1007.66 1007.30 1007.07
1012.78 1012.94 1013.02 1013.12 1013.35 1013.79 1014.48 1015.42 1016.50 1017.60 1018.58 1019.31 1019.70 1019.72 1019.41 1018.83 1018.14 1017.46 1016.88 1016.48 1016.26 1016.18 1016.18 1016.15 1016.02 1015.74 1015.29 1014.71 1014.05 1013.37 1012.74 1012.21 1011.78 1011.43 1011.14 1010.85 1010.51 1010.11 1009.63 1009.11 1008.59 1008.12 1007.75 1007.50
1012.99 1013.04 1013.05 1013.12 1013.36 1013.83 1014.57 1015.55 1016.65 1017.75 1018.70 1019.38 1019.70 1019.65 1019.27 1018.66 1017.96 1017.29 1016.77 1016.45 1016.33 1016.36 1016.45 1016.50 1016.43 1016.18 1015.73 1015.12 1014.41 1013.67 1012.97 1012.38 1011.89 1011.52 1011.21 1010.93 1010.62 1010.25 1009.83 1009.36 1008.88 1008.45 1008.10 1007.85
1013.34 1013.30 1013.26 1013.31 1013.56 1014.07 1014.84 1015.83 1016.94 1018.01 1018.90 1019.51 1019.75 1019.63 1019.19 1018.56 1017.86 1017.23 1016.76 1016.52 1016.49 1016.60 1016.77 1016.89 1016.86 1016.62 1016.16 1015.51 1014.74 1013.92 1013.14 1012.46 1011.89 1011.45 1011.11 1010.81 1010.51 1010.18 1009.81 1009.41 1008.99 1008.61 1008.29 1008.06
1013.79 1013.70 1013.63 1013.68 1013.95 1014.47 1015.26 1016.24 1017.31 1018.33 1019.15 1019.68 1019.85 1019.67 1019.19 1018.54 1017.86 1017.26 1016.85 1016.67 1016.70 1016.88 1017.10 1017.26 1017.25 1017.02 1016.55 1015.86 1015.03 1014.14 1013.27 1012.48 1011.83 1011.31 1010.90 1010.56 1010.26 1009.96 1009.63 1009.29 1008.94 1008.61 1008.34 1008.13
1014.29 1014.17 1014.10 1014.17 1014.45 1014.98 1015.75 1016.70 1017.71 1018.65 1019.39 1019.83 1019.94 1019.71 1019.22 1018.58 1017.91 1017.36 1016.99 1016.85 1016.92 1017.13 1017.38 1017.55 1017.55 1017.32 1016.84 1016.13 1015.27 1014.31 1013.37 1012.50 1011.76 1011.15 1010.67 1010.29 1009.96 1009.66 1009.37 1009.07 1008.79 1008.51 1008.28 1008.10
1014.75 1014.65 1014.60 1014.68 1014.97 1015.49 1016.22 1017.10 1018.02 1018.86 1019.51 1019.88 1019.93 1019.68 1019.20 1018.59 1017.97 1017.46 1017.14 1017.03 1017.11 1017.33 1017.57 1017.73 1017.73 1017.50 1017.01 1016.31 1015.43 1014.45 1013.47 1012.55 1011.73 1011.05 1010.50 1010.07 1009.71 1009.40 1009.12 1008.86 1008.62 1008.39 1008.20 1008.05
1015.12 1015.07 1015.06 1015.18 1015.46 1015.94 1016.60 1017.38 1018.18 1018.91 1019.45 1019.75 1019.76 1019.52 1019.07 1018.52 1017.98 1017.53 1017.25 1017.16 1017.24 1017.44 1017.65 1017.79 1017.76 1017.53 1017.06 1016.37 1015.51 1014.55 1013.57 1012.63 1011.78 1011.05 1010.45 1009.96 1009.56 1009.24 1008.96 1008.72 1008.51 1008.33 1008.18 1008.06
1015.42 1015.43 1015.48 1015.62 1015.89 1016.31 1016.87 1017.51 1018.17 1018.76 1019.20 1019.43 1019.43 1019.21 1018.84 1018.38 1017.93 1017.56 1017.33 1017.26 1017.33 1017.48 1017.65 1017.74 1017.69 1017.45 1016.99 1016.34 1015.53 1014.62 1013.67 1012.75 1011.89 1011.14 1010.50 1009.97 1009.54 1009.19 1008.92 1008.69 1008.51 1008.37 1008.25 1008.17
1015.67 1015.77 1015.88 1016.03 1016.27 1016.61 1017.04 1017.53 1018.03 1018.47 1018.80 1018.97 1018.97 1018.81 1018.52 1018.18 1017.85 1017.58 1017.41 1017.36 1017.41 1017.52 1017.62 1017.65 1017.55 1017.29 1016.85 1016.24 1015.48 1014.63 1013.75 1012.86 1012.03 1011.28 1010.63 1010.07 1009.62 1009.25 1008.97 1008.76 1008.61 1008.50 1008.42 1008.37
1015.94 1016.12 1016.28 1016.44 1016.63 1016.87 1017.16 1017.49 1017.82 1018.11 1018.33 1018.44 1018.45 1018.36 1018.19 1017.98 1017.78 1017.62 1017.52 1017.50 1017.53 1017.58 1017.60 1017.56 1017.40 1017.11 1016.67 1016.08 1015.38 1014.60 1013.78 1012.95 1012.16 1011.42 1010.77 1010.20 1009.74 1009.36 1009.09 1008.89 1008.76 1008.69 1008.65 1008.64
1016.28 1016.53 1016.72 1016.87 1017.01 1017.14 1017.28 1017.43 1017.59 1017.73 1017.85 1017.92 1017.95 1017.93 1017.88 1017.81 1017.75 1017.71 1017.69 1017.69 1017.70 1017.69 1017.64 1017.51 1017.27 1016.93 1016.47 1015.90 1015.24 1014.51 1013.75 1012.98 1012.22 1011.52 1010.87 1010.31 1009.84 1009.47 1009.20 1009.02 1008.92 1008.88 1008.88 1008.90
1016.70 1017.00 1017.20 1017.32 1017.38 1017.40 1017.39 1017.39 1017.38 1017.39 1017.41 1017.45 1017.50 1017.56 1017.62 1017.69 1017.76 1017.83 1017.89 1017.92 1017.91 1017.85 1017.71 1017.49 1017.18 1016.77 1016.28 1015.70 1015.06 1014.37 1013.66 1012.93 1012.22 1011.54 1010.91 1010.36 1009.89 1009.53 1009.27 1009.11 1009.04 1009.03 1009.05 1009.09
1017.18 1017.47 1017.66 1017.73 1017.71 1017.62 1017.48 1017.32 1017.18 1017.08 1017.02 1017.03 1017.11 1017.23 1017.40 1017.60 1017.79 1017.96 1018.08 1018.14 1018.12 1018.00 1017.79 1017.49 1017.10 1016.63 1016.09 1015.50 1014.86 1014.20 1013.51 1012.82 1012.14 1011.48 1010.88 1010.34 1009.88 1009.53 1009.28 1009.14 1009.08 1009.09 1009.13 1009.17
1017.64 1017.89 1018.02 1018.02 1017.92 1017.72 1017.47 1017.20 1016.95 1016.76 1016.65 1016.65 1016.74 1016.93 1017.19 1017.48 1017.77 1018.02 1018.20 1018.28 1018.25 1018.10 1017.83 1017.46 1017.00 1016.48 1015.90 1015.29 1014.66 1014.00 1013.34 1012.67 1012.02 1011.38 1010.79 1010.26 1009.82 1009.47 1009.24 1009.10 1009.05 1009.06 1009.10 1009.12
1017.99 1018.15 1018.20 1018.12 1017.93 1017.64 1017.30 1016.95 1016.63 1016.39 1016.26 1016.25 1016.37 1016.61 1016.93 1017.30 1017.66 1017.97 1018.19 1018.29 1018.26 1018.08 1017.78 1017.36 1016.86 1016.31 1015.71 1015.09 1014.45 1013.81 1013.16 1012.52 1011.88 1011.27 1010.69 1010.17 1009.73 1009.39 1009.15 1009.02 1008.96 1008.95 1008.97 1008.98
1018.16 1018.20 1018.14 1017.97 1017.70 1017.35 1016.95 1016.55 1016.21 1015.95 1015.82 1015.83 1015.98 1016.25 1016.62 1017.03 1017.44 1017.79 1018.03 1018.14 1018.11 1017.92 1017.61 1017.18 1016.66 1016.10 1015.50 1014.88 1014.26 1013.63 1013.00 1012.38 1011.76 1011.15 1010.59 1010.08 1009.64 1009.30 1009.05 1008.90 1008.82 1008.80 1008.79 1008.76
1018.11 1018.02 1017.84 1017.58 1017.23 1016.84 1016.42 1016.02 1015.68 1015.45 1015.35 1015.39 1015.57 1015.88 1016.27 1016.71 1017.13 1017.48 1017.73 1017.85 1017.82 1017.63 1017.32 1016.90 1016.40 1015.85 1015.26 1014.67 1014.07 1013.46 1012.85 1012.24 1011.64 1011.05 1010.49 1009.98 1009.54 1009.19 1008.93 1008.76 1008.66 1008.61 1008.56 1008.50
1017.86 1017.63 1017.33 1016.98 1016.58 1016.17 1015.76 1015.40 1015.11 1014.93 1014.88 1014.97 1015.19 1015.52 1015.93 1016.36 1016.77 1017.12 1017.35 1017.46 1017.43 1017.26 1016.96 1016.56 1016.08 1015.56 1015.01 1014.44 1013.86 1013.28 1012.69 1012.09 1011.50 1010.92 1010.36 1009.86 1009.42 1009.06 1008.78 1008.59 1008.46 1008.38 1008.30 1008.21
1017.43 1017.06 1016.66 1016.24 1015.81 1015.41 1015.04 1014.75 1014.55 1014.45 1014.48 1014.63 1014.89 1015.24 1015.64 1016.06 1016.44 1016.75 1016.96 1017.05 1017.01 1016.84 1016.55 1016.18 1015.73 1015.24 1014.71 1014.17 1013.61 1013.04 1012.47 1011.88 1011.29 1010.71 1010.16 1009.66 1009.22 1008.85 1008.57 1008.36 1008.22 1008.11 1008.01 1007.89
1016.86 1016.38 1015.89 1015.43 1015.00 1014.63 1014.34 1014.13 1014.04 1014.05 1014.17 1014.39 1014.70 1015.06 1015.46 1015.84 1016.18 1016.45 1016.61 1016.67 1016.60 1016.43 1016.15 1015.78 1015.35 1014.88 1014.37 1013.84 1013.29 1012.72 1012.14 1011.56 1010.97 1010.39 1009.85 1009.35 1008.92 1008.56 1008.27 1008.06 1007.91 1007.78 1007.66 1007.53
1016.19 1015.62 1015.07 1014.59 1014.18 1013.87 1013.67 1013.59 1013.62 1013.75 1013.97 1014.27 1014.62 1014.99 1015.37 1015.72 1016.01 1016.22 1016.33 1016.34 1016.24 1016.04 1015.75 1015.38 1014.96 1014.48 1013.97 1013.43 1012.87 1012.29 1011.69 1011.09 1010.50 1009.93 1009.40 1008.91 1008.50 1008.15 1007.88 1007.68 1007.52 1007.39 1007.27 1007.12
1015.41 1014.78 1014.21 1013.74 1013.38 1013.15 1013.06 1013.10 1013.26 1013.51 1013.84 1014.21 1014.60 1014.99 1015.35 1015.66 1015.90 1016.05 1016.10 1016.06 1015.92 1015.68 1015.37 1014.98 1014.53 1014.03 1013.50 1012.93 1012.33 1011.72 1011.11 1010.49 1009.90 1009.33 1008.81 1008.36 1007.97 1007.66 1007.41 1007.23 1007.08 1006.95 1006.82 1006.66
Thickness
5751 5739 5730 5736 5738 5738 5734 5728 5723 5729 5741 5735 5728 5726 5731 5735 5734 5732 5731 5731 5730 5730 5732 5732 5732 5730 5728 5724 5721 5718 5715 5712 5709 5706 5702 5699 5697 5697 5695 5694 5692 5690 5688 5686
5737 5733 5744 5748 5744 5738 5733 5725 5722 5728 5739 5733 5722 5721 5728 5730 5730 5730 5728 5726 5726 5726 5726 5726 5725 5723 5720 5717 5714 5711 5709 5706 5702 5700 5697 5694 5691 5689 5688 5687 5685 5684 5682 5680
5736 5742 5753 5747 5740 5734 5730 5725 5725 5724 5729 5729 5722 5714 5719 5725 5728 5728 5727 5724 5722 5721 5719 5719 5717 5715 5712 5710 5708 5706 5702 5700 5696 5692 5689 5687 5684 5682 5680 5678 5677 5676 5675 5673
5739 5748 5748 5742 5737 5734 5723 5736 5733 5726 5714 5705 5712 5694 5708 5715 5717 5720 5720 5719 5718 5717 5715 5713 5711 5708 5706 5704 5702 5699 5696 5692 5689 5685 5680 5677 5674 5672 5672 5670 5669 5669 5668 5666
5738 5744 5742 5737 5739 5738 5732 5736 5730 5723 5711 5700 5701 5691 5696 5706 5705 5710 5713 5714 5714 5712 5710 5708 5706 5703 5701 5698 5695 5691 5687 5683 5681 5678 5674 5669 5666 5665 5664 5662 5661 5660 5660 5660
5741 5749 5746 5742 5745 5742 5736 5727 5719 5706 5697 5687 5694 5688 5687 5695 5700 5705 5709 5709 5708 5707 5705 5702 5701 5698 5695 5692 5688 5684 5679 5675 5672 5669 5667 5663 5661 5658 5656 5655 5653 5653 5653 5653
5729 5738 5744 5746 5736 5734 5725 5705 5686 5682 5674 5678 5691 5686 5685 5700 5705 5704 5704 5703 5703 5701 5698 5695 5692 5690 5687 5684 5681 5677 5672 5668 5665 5662 5660 5658 5654 5652 5650 5649 5647 5647 5647 5647
5713 5713 5733 5737 5731 5722 5716 5704 5680 5670 5665 5671 5684 5680 5689 5703 5705 5704 5702 5699 5697 5694 5691 5688 5686 5683 5680 5677 5673 5670 5666 5661 5659 5656 5654 5651 5649 5646 5644 5643 5642 5642 5641 5641
5710 5712 5733 5736 5735 5726 5711 5696 5695 5676 5672 5666 5672 5682 5691 5700 5698 5697 5695 5692 5689 5687 5685 5682 5680 5677 5673 5670 5667 5663 5659 5655 5653 5651 5648 5645 5643 5641 5640 5638 5637 5637 5637 5637
5721 5711 5721 5727 5730 5722 5713 5698 5682 5672 5662 5658 5667 5672 5673 5684 5686 5687 5686 5684 5683 5681 5679 5677 5673 5670 5667 5664 5660 5657 5654 5650 5647 5645 5642 5640 5638 5636 5635 5634 5633 5633 5633 5633
5720 5705 5707 5713 5707 5702 5703 5694 5677 5664 5663 5655 5651 5663 5685 5682 5681 5679 5679 5678 5677 5675 5673 5670 5667 5664 5661 5657 5654 5651 5648 5645 5642 5639 5636 5634 5633 5632 5631 5630 5630 5630 5629 5628
5711 5696 5690 5700 5711 5712 5705 5694 5680 5668 5662 5655 5649 5658 5685 5681 5679 5675 5674 5674 5673 5671 5668 5665 5662 5658 5655 5652 5649 5646 5643 5640 5637 5634 5631 5629 5628 5628 5627 5628 5627 5626 5625 5625
5708 5692 5679 5683 5690 5699 5696 5692 5683 5669 5657 5650 5648 5660 5681 5677 5674 5672 5670 5670 5668 5666 5663 5661 5657 5654 5651 5648 5645 5642 5639 5636 5633 5630 5627 5625 5624 5624 5623 5625 5625 5623 5622 5621
5710 5689 5680 5676 5678 5687 5687 5687 5682 5669 5656 5652 5656 5662 5669 5668 5667 5667 5666 5665 5663 5661 5659 5656 5653 5650 5648 5645 5642 5639 5636 5633 5630 5627 5624 5622 5621 5621 5621 5621 5621 5619 5618 5617
5704 5689 5689 5687 5691 5689 5685 5684 5682 5674 5667 5659 5661 5660 5663 5663 5662 5663 5662 5661 5659 5657 5655 5652 5649 5647 5645 5643 5640 5637 5634 5631 5628 5624 5622 5620 5619 5619 5618 5618 5617 5616 5615 5614
5693 5687 5686 5684 5689 5686 5681 5682 5681 5675 5670 5665 5661 5659 5665 5664 5662 5660 5658 5657 5655 5654 5652 5649 5647 5644 5643 5641 5639 5635 5633 5630 5626 5623 5621 5619 5617 5616 5615 5614 5613 5612 5611 5610
5682 5680 5674 5670 5677 5680 5670 5676 5675 5671 5668 5663 5656 5658 5662 5659 5658 5657 5655 5653 5652 5650 5649 5646 5644 5642 5640 5638 5637 5634 5632 5629 5626 5622 5620 5618 5615 5614 5613 5612 5611 5609 5608 5607
5677 5669 5659 5659 5667 5660 5669 5681 5677 5669 5665 5663 5661 5659 5657 5656 5656 5655 5654 5650 5648 5647 5646 5643 5641 5640 5638 5637 5635 5633 5631 5629 5625 5622 5619 5617 5614 5612 5610 5609 5608 5607 5605 5604
5676 5666 5655 5648 5651 5655 5668 5674 5670 5663 5660 5661 5657 5655 5654 5654 5653 5652 5653 5650 5647 5645 5643 5641 5640 5639 5637 5635 5634 5631 5629 5627 5623 5621 5618 5616 5613 5610 5608 5607 5605 5604 5603 5602
5667 5662 5651 5644 5647 5644 5659 5672 5674 5664 5652 5658 5653 5650 5648 5647 5641 5645 5651 5648 5646 5644 5642 5640 5639 5638 5636 5634 5631 5629 5626 5624 5622 5620 5618 5615 5613 5610 5607 5605 5604 5602 5601 5601
5655 5649 5643 5638 5638 5645 5661 5668 5667 5646 5644 5654 5651 5647 5644 5640 5640 5643 5645 5645 5643 5642 5641 5639 5638 5636 5634 5632 5629 5627 5625 5623 5622 5620 5617 5615 5613 5610 5607 5605 5603 5601 5600 5600
5646 5640 5636 5631 5630 5639 5661 5659 5650 5647 5652 5650 5647 5645 5643 5641 5642 5642 5641 5641 5640 5639 5638 5637 5635 5634 5633 5631 5628 5625 5624 5623 5622 5619 5617 5614 5612 5610 5608 5605 5603 5601 5599 5598
5641 5641 5637 5637 5641 5650 5654 5654 5654 5650 5647 5646 5644 5643 5641 5639 5638 5639 5638 5637 5637 5636 5635 5634 5632 5631 5630 5629 5627 5624 5624 5623 5621 5618 5616 5613 5611 5609 5607 5604 5602 5601 5599 5598
5640 5639 5635 5635 5643 5647 5649 5649 5649 5647 5644 5644 5642 5640 5639 5636 5636 5635 5634 5633 5633 5633 5632 5631 5630 5629 5628 5628 5626 5625 5624 5623 5620 5617 5614 5612 5610 5608 5607 5605 5603 5601 5600 5598
5635 5632 5629 5629 5636 5640 5644 5643 5643 5643 5642 5640 5639 5638 5636 5634 5633 5632 5631 5630 5629 5629 5629 5628 5627 5627 5627 5627 5626 5625 5624 5623 5620 5617 5614 5612 5610 5608 5607 5605 5603 5602 5601 5600
5627 5626 5622 5625 5632 5629 5633 5638 5638 5636 5636 5636 5635 5634 5634 5633 5631 5630 5629 5628 5627 5626 5627 5626 5626 5626 5627 5626 5626 5625 5625 5623 5620 5617 5615 5613 5611 5609 5608 5606 5605 5604 5603 5602